Anshun, Guizhou

11:12 AM CST on September 01, 2015 (GMT +0800)
Guiyang | | Change Station
CLOSE
Current Station
Airport
Location: Guiyang,
Elevation: 3734 ft
Nearby Weather Stations

Elev 3734 ft 26.54 °N, 106.80 °E | Updated 12 minutes ago

Mostly Cloudy
Mostly Cloudy
75 °F
Feels Like 75 °F
N
2
Wind Variable Wind from Variable

Today
High -- | Low -- °F
--% Chance of Precip.
Yesterday
High -- | Low -- °F
Precip. -- in
6:35 AM 7:16 PM
Waning Gibbous, 92% visible
Pressure 29.98 in
Visibility 4.3 miles
Clouds Mostly Cloudy 2300 ft
Dew Point 66 °F
Humidity 73%
Rainfall 0.00 in
Snow Depth Not available.
UV 5 out of 12
Pollen Not available.
Air Quality Not available.
Flu Activity Not available.
METAR ZUGY 010300Z VRB01MPS 7000 BKN023 24/19 Q1015 NOSIG
Pressure 29.98 in
Visibility 4.3 miles
Clouds Mostly Cloudy 2300 ft
Dew Point 66 °F
Humidity 73%
Rainfall 0.00 in
Snow Depth Not available.
UV 5 out of 12
Pollen Not available.
Air Quality Not available.
Flu Activity Not available.
METAR ZUGY 010300Z VRB01MPS 7000 BKN023 24/19 Q1015 NOSIG

10-Day Weather Forecast

×

Almanac

Astronomy

Sep. 01, 2015 Rise Set
Actual Time
Civil Twilight
Nautical Twilight
Astronomical Twilight
Moon
Length of Visible Light
Length of Day
Tomorrow will be .
, % of the Moon is Illuminated

Today's Extremes

Country Highs Country Lows

Community

WunderPhotos

Upload Photos

1,851,471 photos uploaded!

WunderBlogs® & News

Nearby

Air Quality

  Air Quality AQ Index Pollutant
Not available.

Snow Depth

Station Depth Elevation

Earthquake Activity

City Distance Mag. Time & Date
Minimum magnitude displayed is 2.5.

Coastal Water Temperatures

Place Temperature

Stations

Nearby Weather Stations

Station Location Temp. Windchill Dew Point Humidity Wind Precip. Elev Updated Type